Content
SEND FEEDBACK

Daily
Averages
Monthly
Summary
United States of America

CHICAGO, ILLINOIS


Home > North America > United States > Illinois
Elevation: 674 feet     Latitude: 41 59N     Longitude: 087 54W

WEATHER
 
SELECT A DAY
Number of Records: 194,798;   Date Range: 7/8/95 - 7/22/14
 
SHARE

PRINT THIS DATA

[ ← Previous Day ]
WEATHER ALMANAC - APRIL 25, 2013
[ Next Day → ]
[ °C ]   °F
Weather ElementAverageHighLow
Temperature44.9 °F50 °F (3:52 pm)39 °F (4:52 am)
Dewpoint31.4 °F36 °F (5:52 am)27 °F (7:52 pm)
Humidity60.6 %86 % (4:52 am)43 % (4:52 pm)
Barometer30.21 in30.35 in (10:52 pm)30.07 in (2:52 am)
Wind Speed10.4 mph18.4 mph (7:52 am)
Wind Gust31.1 mph (3:52 am)
Weather ElementAverage
Visibility10 mi
Wind DirectionWSW (236.5 °)

Weather ElementTotal
Precipitation---
Heating Degree Days20.5 (Base 65)
Averaged from 26 records on April 25, 2013
WEATHER CONDITIONS BREAKOUT
WIND DIRECTION BREAKOUT
WEATHER BY HOUR - APRIL 25, 2013
[ °C ]   °F
Local TimeTemperatureDewpointHumidityBarometerVisibilityWind DirectionWind SpeedGust SpeedPrecipitationEventsConditions
1:52 AM44.1 °F30.0 °F58 %30.10 in10.0 miSSW (210°)11.5 mph
2:52 AM44.1 °F30.0 °F58 %30.07 in10.0 miSSW (210°)10.4 mph19.6 mph
3:52 AM44.1 °F32.0 °F63 %30.07 in10.0 miWSW (240°)15.0 mph31.1 mphRainLight Rain
4:52 AM39.0 °F35.1 °F86 %30.08 in10.0 miSW (220°)6.9 mph
5:52 AM39.9 °F36.0 °F86 %30.08 in10.0 miWSW (240°)10.4 mphOvercast
6:52 AM41.0 °F36.0 °F82 %30.10 in10.0 miWest (260°)10.4 mphScattered Clouds
7:52 AM42.1 °F34.0 °F73 %30.13 in10.0 miWest (280°)18.4 mph27.6 mphScattered Clouds
8:01 AM42.8 °F32.0 °F66 %30.12 in10.0 miWNW (290°)15.0 mph26.5 mphMostly Cloudy
8:52 AM44.1 °F33.1 °F65 %30.15 in10.0 miNW (320°)16.1 mph24.2 mphMostly Cloudy
8:59 AM44.6 °F32.0 °F61 %30.14 in10.0 miWNW (300°)16.1 mphMostly Cloudy
9:52 AM44.1 °F32.0 °F63 %30.18 in10.0 miWNW (290°)15.0 mph20.7 mphMostly Cloudy
10:52 AM46.0 °F33.1 °F61 %30.22 in10.0 miWest (280°)13.8 mphMostly Cloudy
11:52 AM45.0 °F30.9 °F58 %30.24 in10.0 miWest (280°)13.8 mph
11:54 AM44.6 °F30.2 °F57 %30.23 in10.0 miWest (280°)12.7 mphMostly Cloudy
12:52 PM46.0 °F30.0 °F54 %30.25 in10.0 miWest (270°)12.7 mphMostly Cloudy
1:52 PM46.9 °F30.9 °F54 %30.27 in10.0 miWest (260°)10.4 mph16.1 mphMostly Cloudy
2:52 PM48.9 °F30.0 °F48 %30.28 in10.0 miWest (270°)15.0 mph19.6 mphMostly Cloudy
3:52 PM50.0 °F30.0 °F46 %30.27 in10.0 miWNW (290°)9.2 mph
4:52 PM50.0 °F28.0 °F43 %30.29 in10.0 miWSW (250°)9.2 mphMostly Cloudy
5:52 PM50.0 °F28.0 °F43 %30.29 in10.0 miWSW (250°)8.1 mph18.4 mphScattered Clouds
6:52 PM48.9 °F28.0 °F44 %30.30 in10.0 miWSW (250°)8.1 mphScattered Clouds
7:52 PM48.0 °F27.0 °F44 %30.30 in10.0 miWSW (250°)3.5 mphClear
8:52 PM46.0 °F28.9 °F51 %30.32 in10.0 miSouth (190°)4.6 mphClear
9:52 PM43.0 °F35.1 °F74 %30.33 in10.0 miSouth (170°)3.5 mphClear
10:52 PM42.1 °F32.0 °F67 %30.35 in10.0 miCalm
11:52 PM42.1 °F33.1 °F70 %30.35 in10.0 miCalm
Hourly data recorded from KPWK, located miles away from Chicago, Illinois







STORIES FROM OUR PARTNERS